Regional Weather Roundup
Issued by NWS

Home | Current Version | Previous Version | Graphics & Text | Print | Product List | Glossary On
Versions: 1 2 3 4 5 6 7 8 9 10 11 12 13 14 15 16 17 18 19 20 21 22 23 24 25 26 27
000
ASUS45 KPSR 220210
RWRAZ

ARIZONA HOURLY REGIONAL WEATHER ROUNDUP
NATIONAL WEATHER SERVICE PHOENIX AZ
700 PM MST TUE NOV 21 2017

NOTE: FAIR INDICATES FEW OR NO CLOUDS BELOW 12,000 FEET WITH NO
SIGNIFICANT WEATHER AND/OR OBSTRUCTIONS TO VISIBILITY.

AZZ001>003-036-220300-
NORTHWEST ARIZONA

CITY           SKY/WX    TMP DP  RH WIND       PRES   REMARKS
BULLHEAD CITY  MOCLDY    73  14  10 NE9G15    30.11R
KINGMAN        MOCLDY    58  18  21 E8        30.24R
$$

AZZ004>008-015-016-018-220300-
NORTH CENTRAL ARIZONA

CITY           SKY/WX    TMP DP  RH WIND       PRES   REMARKS
GRAND CANYON   MOCLDY    44  20  38 CALM      30.40R
WILLIAMS       PTCLDY    52  27  37 E7        30.39R
PRESCOTT       PTCLDY    62  27  26 SE5       30.28R
FLAGSTAFF      PTCLDY    49  27  42 E3        30.41R
PAYSON         MOCLDY    59  23  25 N8        30.30R HAZE
PAGE           MOCLDY    51  21  30 CALM      30.33R
$$

AZZ009>014-017-220300-
NORTHEAST ARIZONA

CITY           SKY/WX    TMP DP  RH WIND       PRES   REMARKS
WINSLOW        MOCLDY    47  11  23 W5        30.32R
SAINT JOHNS    MOCLDY    51  18  27 W3        30.33R
WINDOW ROCK    PTCLDY    49  26  41 NE7       30.37R
SHOW LOW       MOCLDY    48  18  29 NE5       30.37R
$$

AZZ540-542>544-546-548-220300-
GREATER PHOENIX AREA

CITY           SKY/WX    TMP DP  RH WIND       PRES   REMARKS
PHOENIX        MOCLDY    72  29  20 W3        30.05R
BUCKEYE        MOCLDY    68  27  21 N5        30.07R
GLENDALE       MOCLDY    68  32  26 CALM      30.07R
LUKE AFB       CLEAR     69  32  25 CALM      30.05R
DEER VALLEY    PTCLDY    66  23  19 CALM      30.07R
SCOTTSDALE     PTCLDY    70  33  25 NW3       30.08R
MESA-GATEWAY   CLEAR     66  28  24 VRB3      30.08R
CHANDLER       CLEAR     68  28  22 CALM      30.07R
$$

AZZ539-553-220300-
SOUTHWEST MARICOPA COUNTY AND PINAL COUNTY

CITY           SKY/WX    TMP DP  RH WIND       PRES   REMARKS
CASA GRANDE    NOT AVBL
GILA BEND      MOCLDY    68  19  15 SE2       30.06R
$$

AZZ503-504-507>509-220300-
SOUTHEAST ARIZONA

CITY           SKY/WX    TMP DP  RH WIND       PRES   REMARKS
TUCSON         PTCLDY    66  25  21 W6        30.13R
DAVIS-MONTHAN  PTCLDY    64  23  21 CALM      30.11R
RYAN FIELD     CLEAR     66  23  19 W6        30.12R
NOGALES        MOCLDY    64  21  19 CALM      30.15R
SIERRA VISTA   PTCLDY    57  17  20 SE5       30.21R
DOUGLAS        PTCLDY    59  15  18 NE8       30.17R
SAFFORD        PTCLDY    60  11  14 E3        30.12R
$$

AZZ532-220300-
SOUTHWEST ARIZONA

CITY           SKY/WX    TMP DP  RH WIND       PRES   REMARKS
YUMA           MOCLDY    76  14   9 N3        30.04R
$$

CAZ041-043-047-048-061-525>527-560>570-220300-
SOUTHERN CALIFORNIA

CITY           SKY/WX    TMP DP  RH WIND       PRES   REMARKS
DOWNTOWN L.A.  CLEAR     73  43  33 CALM      30.01R
L.A. AIRPORT   PTCLDY    68  57  68 W3        30.02R
SAN DIEGO      PTCLDY    69  56  62 S6        30.02R
BURBANK        CLEAR     79  34  19 CALM      30.03R
ONTARIO        MOCLDY    79  31  17 CALM      30.04R
RIVERSIDE      CLEAR     81  30  15 SE3       30.04R
PALM SPRINGS   CLEAR     77  34  21 CALM      30.07R
EL CENTRO NAS  MOCLDY    69  40  34 E5        30.05R
IMPERIAL       PTCLDY    73  36  25 CALM      30.03R
BLYTHE         CLOUDY    70  19  14 W5        30.06S
$$

NVZ020-UTZ003-220300-
SOUTHERN NEVADA-UTAH

CITY           SKY/WX    TMP DP  RH WIND       PRES   REMARKS
LAS VEGAS      CLOUDY    67  20  16 SE3       30.20R
SALT LAKE CITY MOCLDY    53  43  68 CALM      30.36R
$$

NMZ009-TXZ055-220300-
NEW MEXICO-WEST TEXAS

CITY           SKY/WX    TMP DP  RH WIND       PRES   REMARKS
ALBUQUERQUE    PTCLDY    57  18  21 E17       30.31R
EL PASO        PTCLDY    64  17  16 NE12      30.22R
$$


........................KEY........................
SKY/WX - SKY CONDITION/WEATHER
TMP    - TEMPERATURE IN FAHRENHEIT
DP     - DEW POINT IN FAHRENHEIT
RH     - RELATIVE HUMIDITY IN PERCENT
WIND   - DIRECTION AND SPEED IN MILES PER HOUR (MPH)
VRB    - VARIABLE WIND DIRECTION
PRES   - MEAN SEA LEVEL PRESSURE IN INCHES OF MERCURY
         F - FALLING PRESSURE   R - RISING PRESSURE
         S - STEADY PRESSURE
VSB    - VISIBILITY IN MILES
HX     - HEAT INDEX IN FAHRENHEIT
WCI    - WIND CHILL INDEX IN FAHRENHEIT
TC     - TEMPERATURE IN CELSIUS WHICH IS ALSO KNOWN AS
         TEMPERATURE IN CENTIGRADE
AFB    - AIR FORCE BASE
         LUKE AFB IS LUKE AIR FORCE BASE
         DAVIS-MONTHAN IS DAVIS-MONTHAN AIR FORCE BASE
NAS    - NAVAL AIR STATION
         EL CENTRO NAS IS EL CENTRO NAVAL AIR STATION
N/A    - NOT AVAILABLE





USA.gov is the U.S. government's official web portal to all federal, state and local government web resources and services.